Location: Unspecified
(0.0000°N, 0.0000°E)
Time: 01:29:50
(UTC+02:00)

Delta 168 - Visible Passes

Search period start: 21 April 2014 00:00
Search period end: 01 May 2014 00:00
Orbit: 395 x 2126 km, 25.3° (Epoch: 20 April)

Date Brightness Start Highest point End Pass type
(mag) Time Alt. Az. Time Alt. Az. Time Alt. Az.
21 Apr 6.4 05:23:27 11° SSE 05:23:27 11° SSE 05:24:09 10° SE visible
21 Apr 5.0 07:15:25 10° SW 07:20:29 26° SSE 07:24:11 10° ESE visible
21 Apr 5.5 21:02:34 10° WNW 21:13:11 77° SSW 21:22:30 24° SE visible
21 Apr 6.3 23:03:04 10° W 23:13:10 39° SSW 23:13:10 39° SSW visible
22 Apr 6.2 05:22:13 15° SSE 05:22:13 15° SSE 05:24:07 10° SE visible
22 Apr 4.6 07:13:30 10° SW 07:19:26 35° SSE 07:23:31 10° E visible
22 Apr 5.6 21:01:20 10° WNW 21:11:35 68° SSW 21:21:10 22° SE visible
22 Apr 6.4 23:02:06 10° W 23:11:50 34° SSW 23:11:50 34° SSW visible
23 Apr 6.1 05:20:56 19° SSE 05:20:56 19° SSE 05:23:48 10° ESE visible
23 Apr 4.3 07:11:39 10° SW 07:18:17 47° SSE 07:22:40 10° E visible
23 Apr 5.7 21:00:08 10° WNW 21:10:01 59° SSW 21:19:47 20° SE visible
23 Apr 6.5 23:01:12 10° WSW 23:10:27 31° SSW 23:10:27 31° SSW visible
24 Apr 5.9 05:19:39 23° SE 05:19:39 23° SE 05:23:18 10° ESE visible
24 Apr 4.0 07:10:19 12° SW 07:17:04 63° SSE 07:21:41 10° ENE visible
24 Apr 5.9 20:59:00 10° W 21:08:29 51° SSW 21:18:20 18° SE visible
24 Apr 6.6 23:00:21 10° WSW 23:09:00 28° SSW 23:09:00 28° SSW visible
25 Apr 5.7 05:18:19 29° SE 05:18:19 29° SE 05:22:37 10° ESE visible
25 Apr 3.8 07:08:59 13° WSW 07:15:44 82° SSE 07:20:35 10° ENE visible
25 Apr 6.0 20:57:57 10° W 21:07:00 44° SSW 21:16:50 16° SE visible
25 Apr 6.7 22:59:32 10° WSW 23:07:29 25° SSW 23:07:29 25° SSW visible
26 Apr 5.5 05:16:57 35° SE 05:16:57 35° SE 05:21:47 10° E visible
26 Apr 3.9 07:07:36 15° WSW 07:14:20 78° NNW 07:19:22 10° ENE visible
26 Apr 6.1 20:56:57 10° W 21:05:33 38° SSW 21:15:15 14° SE visible
26 Apr 6.8 22:58:44 10° WSW 23:05:54 23° SSW 23:05:54 23° SSW visible
27 Apr 5.3 05:15:31 43° SE 05:15:31 43° SE 05:20:49 10° E visible
27 Apr 4.2 07:06:11 15° WSW 07:12:50 63° NNW 07:18:03 10° NE visible
27 Apr 6.2 20:56:02 10° WSW 21:04:08 32° SSW 21:13:37 13° SE visible
27 Apr 6.9 22:57:55 10° SW 23:04:15 21° SSW 23:04:15 21° SSW visible
28 Apr 5.2 05:14:03 51° ESE 05:14:03 51° ESE 05:19:43 10° E visible
28 Apr 4.5 07:04:42 16° W 07:11:16 51° NNW 07:16:38 10° NE visible
28 Apr 6.4 20:55:11 10° WSW 21:02:45 28° SSW 21:11:55 11° SE visible
28 Apr 6.9 22:57:04 10° SW 23:02:33 19° SSW 23:02:33 19° SSW visible
29 Apr 5.0 05:12:30 59° ESE 05:12:30 59° ESE 05:18:30 10° ENE visible
29 Apr 4.8 07:03:09 16° W 07:09:39 42° NNW 07:15:08 10° NE visible
29 Apr 6.4 20:54:24 10° WSW 21:01:25 24° S 21:10:09 10° SE visible
29 Apr 6.9 22:56:07 10° SW 23:00:47 18° SSW 23:00:47 18° SSW visible
30 Apr 5.0 05:10:54 65° E 05:10:54 65° E 05:17:10 10° ENE visible
30 Apr 5.1 07:01:33 15° W 07:07:59 36° NNW 07:13:33 10° NE visible
30 Apr 6.5 20:53:41 10° SW 21:00:06 21° S 21:08:04 10° SE visible
30 Apr 6.9 22:55:03 10° SW 22:58:59 17° SSW 22:58:59 17° SSW visible
